FW2365 Weather Reports


time (UTC)temp
F
wind
direction
speed
knots
gust
knots
rain 1hr
in
rain 24hr
in
rain mn
in
humidity
%
barometer
mb
20260506143530 69 285 3.5 7.0 0.00 0.00 0.00 39 1006.6
20260506143029 69 260 0.9 4.3 0.00 0.00 0.00 40 1006.6
20260506142528 69 127 0.9 5.2 0.00 0.00 0.00 42 1006.6
20260506142028 69 282 0.9 2.6 0.00 0.00 0.00 39 1006.5
20260506141528 69 185 0.9 2.6 0.00 0.00 0.00 41 1006.7
20260506141030 69 183 0.9 2.6 0.00 0.00 0.00 43 1006.6
20260506140530 69 122 0.0 2.6 0.00 0.00 0.00 42 1006.6
20260506140030 69 122 0.0 3.5 0.00 0.00 0.00 44 1006.7
20260506135527 70 107 0.9 3.5 0.00 0.00 0.00 41 1006.8
20260506135029 70 160 0.0 2.6 0.00 0.00 0.00 44 1006.9
20260506134528 70 159 0.9 3.5 0.00 0.00 0.00 44 1006.9
20260506134028 70 320 0.9 3.5 0.00 0.00 0.00 42 1006.8
20260506133525 70 24 0.0 3.5 0.00 0.00 0.00 42 1006.8
20260506133025 70 25 0.0 7.0 0.00 0.00 0.00 44 1006.7
20260506132525 70 314 4.3 8.7 0.00 0.00 0.00 40 1006.6
20260506132025 70 318 6.1 8.7 0.00 0.00 0.00 43 1006.6
20260506131525 70 283 6.1 8.7 0.00 0.00 0.00 44 1006.6
20260506131026 69 279 1.7 8.7 0.00 0.00 0.00 40 1006.6
20260506130525 69 304 5.2 8.7 0.00 0.00 0.00 45 1006.7
20260506130022 69 309 3.5 7.8 0.00 0.00 0.00 45 1006.8
20260506125521 69 314 4.3 7.8 0.00 0.00 0.00 44 1006.9
20260506125021 69 271 5.2 8.7 0.00 0.00 0.00 43 1006.8
20260506124521 69 318 6.1 8.7 0.00 0.00 0.00 44 1006.8
20260506124022 69 304 5.2 7.8 0.00 0.00 0.00 43 1006.9
20260506123520 69 298 5.2 8.7 0.00 0.00 0.00 44 1007.0
20260506123019 69 309 2.6 7.8 0.00 0.00 0.00 43 1007.1
20260506122518 69 106 0.9 2.6 0.00 0.00 0.00 46 1007.2
20260506122016 69 139 0.9 1.7 0.00 0.00 0.00 46 1007.3
20260506121515 68 156 0.0 7.8 0.00 0.00 0.00 49 1007.4
20260506121014 67 149 1.7 7.8 0.00 0.00 0.00 48 1007.5
20260506120514 67 299 3.5 7.8 0.00 0.00 0.00 49 1007.5
20260506120013 66 322 2.6 7.8 0.00 0.00 0.00 51 1007.4
20260506115511 66 304 5.2 9.6 0.00 0.00 0.00 50 1007.5
20260506115010 65 265 3.5 10.4 0.00 0.00 0.00 52 1007.5
20260506114510 65 309 6.1 10.4 0.00 0.00 0.00 52 1007.6
20260506114009 65 272 5.2 9.6 0.00 0.00 0.00 52 1007.5
20260506113508 65 309 5.2 7.8 0.00 0.00 0.00 51 1007.6
20260506113014 65 304 3.5 7.8 0.00 0.00 0.00 52 1007.6
20260506112507 65 309 4.3 10.4 0.00 0.00 0.00 53 1007.7
20260506112006 65 309 6.1 10.4 0.00 0.00 0.00 52 1007.8
20260506111505 65 304 5.2 9.6 0.00 0.00 0.00 54 1007.9
20260506111004 64 309 5.2 11.3 0.00 0.00 0.00 52 1008.0
20260506110504 64 344 7.8 11.3 0.00 0.00 0.00 54 1008.0
20260506105502 64 304 7.8 12.2 0.00 0.00 0.00 55 1008.1
20260506105001 64 323 5.2 10.4 0.00 0.00 0.00 55 1008.2
20260506104600 64 304 7.0 10.4 0.00 0.00 0.00 55 1008.3
20260506104059 64 304 4.3 7.8 0.00 0.00 0.00 57 1008.4
20260506103558 63 278 1.7 8.7 0.00 0.00 0.00 52 1008.5
20260506103056 63 309 5.2 8.7 0.00 0.00 0.00 58 1008.6
20260506102555 63 293 5.2 7.8 0.00 0.00 0.00 57 1008.8
20260506102055 62 280 5.2 10.4 0.00 0.00 0.00 54 1008.9
20260506101553 62 293 7.0 10.4 0.00 0.00 0.00 58 1008.9
20260506101053 62 299 4.3 8.7 0.00 0.00 0.00 59 1009.0
20260506100552 61 338 1.7 4.3 0.00 0.00 0.00 61 1009.2
20260506100051 61 309 2.6 4.3 0.00 0.00 0.00 61 1009.3
20260506095551 60 304 1.7 3.5 0.00 0.00 0.00 60 1009.2
20260506095050 60 304 0.9 3.5 0.00 0.00 0.00 60 1009.3
20260506094551 60 293 2.6 4.3 0.00 0.00 0.00 59 1009.3
20260506094050 61 309 2.6 4.3 0.00 0.00 0.00 58 1009.3
20260506093550 61 309 0.9 2.6 0.00 0.00 0.00 59 1009.3
20260506093107 61 265 0.0 1.7 0.00 0.00 0.00 56 1009.3
20260506092550 61 265 0.0 1.7 0.00 0.00 0.00 59 1009.3
20260506092050 61 265 0.9 2.6 0.00 0.00 0.00 59 1009.3
20260506091550 62 265 0.9 2.6 0.00 0.00 0.00 57 1009.2
20260506091050 61 282 0.9 3.5 0.00 0.00 0.00 59 1009.2
20260506090550 61 309 0.0 4.3 0.00 0.00 0.00 57 1009.1
20260506090055 61 304 1.7 5.2 0.00 0.00 0.00 60 1009.0
20260506085548 61 295 3.5 5.2 0.00 0.00 0.00 59 1009.1
20260506085047 61 320 0.0 3.5 0.00 0.00 0.00 61 1009.1
20260506084547 61 72 0.9 1.7 0.00 0.00 0.00 62 1009.2
20260506084048 61 81 0.0 1.7 0.00 0.00 0.00 59 1009.2
20260506083548 61 81 0.0 3.5 0.00 0.00 0.00 60 1009.2
20260506083046 62 81 0.0 3.5 0.00 0.00 0.00 56 1009.2
20260506082544 62 304 0.9 3.5 0.00 0.00 0.00 58 1009.2
20260506082043 61 314 0.0 1.7 0.00 0.00 0.00 62 1009.3
20260506081542 60 314 0.0 1.7 0.00 0.00 0.00 64 1009.4
20260506081041 59 314 0.0 0.9 0.00 0.00 0.00 65 1009.4
20260506080540 59 314 0.0 2.6 0.00 0.00 0.00 67 1009.5
20260506073029 57 122 0.0 1.7 0.00 0.00 0.00 70 1010.2
20260506072529 56 319 0.0 0.9 0.00 0.00 0.00 71 1010.1
20260506072028 56 319 0.0 1.7 0.00 0.00 0.00 70 1010.3
20260506071528 56 319 0.9 1.7 0.00 0.00 0.00 73 1010.3
20260506071027 56 314 0.0 2.6 0.00 0.00 0.00 72 1010.4
20260506070530 56 314 0.9 2.6 0.00 0.00 0.00 70 1010.5
20260506062019 53 166 0.0 1.7 0.00 0.00 0.00 73 1010.7
20260506061519 53 166 0.0 1.7 0.00 0.00 0.00 74 1010.8
20260506061018 52 166 0.0 1.7 0.00 0.00 0.00 73 1010.8
20260506060518 52 166 0.0 1.7 0.00 0.00 0.00 76 1010.7
20260506051008 48 169 0.0 1.7 0.00 0.00 0.00 79 1011.5
20260506050508 48 169 0.9 1.7 0.00 0.00 0.00 78 1011.8
20260506045010 49 169 0.0 2.6 0.00 0.00 0.00 80 1011.8
20260506044510 48 169 1.7 2.6 0.00 0.00 0.00 79 1011.9
20260506044009 48 169 1.7 3.5 0.00 0.00 0.00 81 1011.9
20260506043508 47 309 0.9 2.6 0.00 0.00 0.00 80 1011.8
20260506043005 47 309 0.9 3.5 0.00 0.00 0.00 82 1011.7
20260506042504 46 168 0.9 1.7 0.00 0.00 0.00 83 1011.7
20260506042003 47 168 0.0 1.7 0.00 0.00 0.00 83 1011.7
20260506041501 47 168 0.0 1.7 0.00 0.00 0.00 82 1011.7
20260506041002 47 168 0.0 0.9 0.00 0.00 0.00 80 1011.7
20260506040504 48 309 0.0 1.7 0.00 0.00 0.00 80 1011.8
20260506040001 49 168 0.0 1.7 0.00 0.00 0.00 80 1011.8
20260506035602 49 309 0.9 1.7 0.00 0.00 0.00 79 1011.7
20260506035059 48 309 0.0 2.6 0.00 0.00 0.00 78 1011.6
20260506034603 48 168 0.9 2.6 0.00 0.00 0.00 80 1011.4
20260506034058 48 168 0.0 1.7 0.00 0.00 0.00 81 1011.4
20260506033558 48 168 0.0 1.7 0.00 0.00 0.00 81 1011.5
20260506033058 48 168 0.9 1.7 0.00 0.00 0.00 81 1011.6
20260506032556 47 168 0.0 1.7 0.00 0.00 0.00 82 1011.7
20260506032055 47 168 0.0 1.7 0.00 0.00 0.00 83 1011.9
20260506031556 47 168 0.0 1.7 0.00 0.00 0.00 82 1012.2
20260506031052 47 309 0.0 1.7 0.00 0.00 0.00 81 1012.3
20260506030553 48 309 0.0 1.7 0.00 0.00 0.00 81 1012.4
20260506030051 48 168 0.0 1.7 0.00 0.00 0.00 80 1012.4
20260506025553 48 309 0.0 1.7 0.00 0.00 0.00 81 1012.5
20260506025051 48 309 0.0 1.7 0.00 0.00 0.00 81 1012.5
20260506024551 48 168 0.9 1.7 0.00 0.00 0.00 81 1012.4
20260506024051 48 168 0.0 1.7 0.00 0.00 0.00 81 1012.4
20260506023551 48 168 0.9 1.7 0.00 0.00 0.00 81 1012.3
20260506023055 48 309 0.0 1.7 0.00 0.00 0.00 81 1012.4
20260506022549 48 309 0.0 1.7 0.00 0.00 0.00 80 1012.6
20260506022048 48 168 0.0 1.7 0.00 0.00 0.00 79 1012.6
20260506021548 49 309 0.0 1.7 0.00 0.00 0.00 78 1012.6
20260506021050 49 168 0.0 1.7 0.00 0.00 0.00 79 1012.7
20260506020546 49 309 0.0 1.7 0.00 0.00 0.00 79 1012.6
20260506020114 49 309 0.9 1.7 0.00 0.00 0.00 78 1012.3
20260506015549 49 309 0.0 1.7 0.00 0.00 0.00 78 1012.1
20260506015046 49 168 0.0 2.6 0.00 0.00 0.00 79 1012.3
20260506014546 48 309 0.9 2.6 0.00 0.00 0.00 79 1012.3
20260506014044 49 309 0.9 1.7 0.00 0.00 0.00 78 1012.3
20260506013544 49 309 0.0 1.7 0.00 0.00 0.00 78 1012.3
20260506013043 49 309 0.0 1.7 0.00 0.00 0.00 78 1012.4
20260506012543 49 309 0.0 1.7 0.00 0.00 0.00 76 1012.4
20260506012041 49 309 0.0 1.7 0.00 0.00 0.00 76 1012.4
20260506011517 50 309 0.0 1.7 0.00 0.00 0.00 76 1012.6
20260506011041 50 309 0.0 1.7 0.00 0.00 0.00 75 1012.7
20260506010541 50 309 0.0 3.5 0.00 0.00 0.00 75 1012.6
20260506010041 50 309 0.9 3.5 0.00 0.00 0.00 75 1012.5
20260506005540 50 309 1.7 3.5 0.00 0.00 0.00 75 1012.4
20260506005039 50 309 0.9 2.6 0.00 0.00 0.00 76 1012.4
20260506004543 50 309 0.9 2.6 0.00 0.00 0.00 76 1012.5
20260506004039 49 309 0.0 1.7 0.00 0.00 0.00 76 1012.5
20260506003539 49 309 0.0 0.9 0.00 0.00 0.00 76 1012.5
20260506003039 49 309 0.0 1.7 0.00 0.00 0.00 75 1012.5
20260506002538 50 309 0.0 1.7 0.00 0.00 0.00 73 1012.5
20260506002036 50 168 0.0 1.7 0.00 0.00 0.00 73 1012.6
20260506001545 50 168 0.0 2.6 0.00 0.00 0.00 73 1012.5
20260506001035 50 168 0.0 2.6 0.00 0.00 0.00 73 1012.5
20260506000535 50 168 0.9 2.6 0.00 0.00 0.00 72 1012.6
20260506000052 51 168 0.0 2.6 0.00 0.00 0.00 72 1012.5
20260505235537 51 168 0.9 2.6 0.00 0.00 0.00 72 1012.5
20260505235037 51 352 0.0 1.7 0.00 0.00 0.00 72 1012.5
20260505234634 51 352 0.0 1.7 0.00 0.00 0.00 71 1012.6
20260505234031 51 352 0.0 1.7 0.00 0.00 0.00 70 1012.6
20260505233631 52 352 0.0 1.7 0.00 0.00 0.00 68 1012.7
20260505233028 53 287 0.0 1.7 0.00 0.00 0.00 69 1012.8
20260505232529 54 287 0.0 1.7 0.00 0.00 0.00 67 1012.8
20260505232111 54 287 0.0 1.7 0.00 0.00 0.00 69 1012.8
20260505225548 56 257 4.3 8.7 0.00 0.00 0.00 67 1012.6
20260505225048 56 285 3.5 9.6 0.00 0.00 0.00 67 1012.6
20260505224550 56 267 4.3 11.3 0.00 0.00 0.00 67 1012.5
20260505224044 56 281 1.7 11.3 0.00 0.00 0.00 67 1012.5
20260505223545 56 282 4.3 11.3 0.00 0.00 0.00 67 1012.5
20260505223043 56 304 3.5 9.6 0.00 0.00 0.00 67 1012.4
20260505222544 57 253 3.5 9.6 0.00 0.00 0.00 67 1012.4
20260505222047 57 270 5.2 9.6 0.00 0.00 0.00 67 1012.4
20260505221548 57 283 6.1 10.4 0.00 0.00 0.00 68 1012.4
20260505221039 57 280 4.3 10.4 0.00 0.00 0.00 68 1012.3
20260505220539 57 304 3.5 10.4 0.00 0.00 0.00 70 1012.3
20260505220038 57 282 4.3 8.7 0.00 0.00 0.00 71 1012.2
20260505215538 57 271 2.6 7.0 0.00 0.00 0.00 71 1012.2
20260505215036 56 288 2.6 7.8 0.00 0.00 0.00 71 1012.2
20260505214544 55 292 1.7 4.3 0.00 0.00 0.00 71 1012.1
20260505214037 55 304 0.0 4.3 0.00 0.00 0.00 71 1012.2
20260505213536 54 295 0.9 2.6 0.00 0.00 0.00 71 1012.2
20260505213036 54 161 0.0 1.7 0.00 0.00 0.00 71 1012.1
20260505212536 54 196 0.9 2.6 0.00 0.00 0.00 66 1012.1
20260505212035 54 196 0.0 2.6 0.00 0.00 0.00 69 1012.0
20260505211601 54 197 0.9 1.7 0.00 0.00 0.00 63 1012.1
20260505211035 54 197 0.0 1.7 0.00 0.00 0.00 62 1012.0
20260505210535 54 243 0.0 1.7 0.00 0.00 0.00 62 1011.9
20260505210041 54 243 0.9 1.7 0.00 0.00 0.00 62 1011.9
20260505205535 54 243 0.0 1.7 0.00 0.00 0.00 61 1011.8
20260505205037 54 243 0.0 1.7 0.00 0.00 0.00 63 1011.7
20260505204544 54 197 0.0 1.7 0.00 0.00 0.00 63 1011.6
20260505204035 54 197 0.0 1.7 0.00 0.00 0.00 64 1011.5
20260505203534 54 197 0.0 1.7 0.00 0.00 0.00 63 1011.4
20260505203034 55 197 0.0 1.7 0.00 0.00 0.00 63 1011.4
20260505202535 56 197 0.0 1.7 0.00 0.00 0.00 60 1011.3
20260505202034 56 197 0.0 2.6 0.00 0.00 0.00 59 1011.2
20260505201538 57 197 0.0 2.6 0.00 0.00 0.00 57 1011.1
20260505201030 56 197 0.0 1.7 0.00 0.00 0.00 57 1011.0
20260505200126 57 197 0.0 1.7 0.00 0.00 0.00 56 1010.9
20260505195514 57 197 0.0 1.7 0.00 0.00 0.00 57 1010.8
20260505195013 57 197 0.0 1.7 0.00 0.00 0.00 57 1010.7
20260505194514 57 197 0.0 1.7 0.00 0.00 0.00 57 1010.6
20260505194016 57 197 0.0 1.7 0.00 0.00 0.00 57 1010.6
20260505193514 57 197 0.0 1.7 0.00 0.00 0.00 57 1010.5
20260505193013 57 197 0.0 1.7 0.00 0.00 0.00 57 1010.4
20260505192512 57 197 0.0 1.7 0.00 0.00 0.00 57 1010.4
20260505192013 58 197 0.0 1.7 0.00 0.00 0.00 58 1010.4
20260505191515 58 197 0.0 1.7 0.00 0.00 0.00 58 1010.3
20260505191013 59 197 0.0 1.7 0.00 0.00 0.00 55 1010.2
20260505190512 59 197 0.9 1.7 0.00 0.00 0.00 55 1010.2
20260505190013 59 169 0.0 2.6 0.00 0.00 0.00 55 1010.2
20260505185513 59 169 0.0 3.5 0.00 0.00 0.00 55 1010.1
20260505185012 59 162 0.0 1.7 0.00 0.00 0.00 54 1010.0
20260505184511 59 162 0.0 2.6 0.00 0.00 0.00 54 1010.0
20260505184012 59 162 0.9 2.6 0.00 0.00 0.00 53 1009.9
20260505183514 60 162 0.9 2.6 0.00 0.00 0.00 54 1009.8
20260505183014 61 162 0.0 1.7 0.00 0.00 0.00 51 1009.7
20260505182513 61 162 0.0 1.7 0.00 0.00 0.00 52 1009.7
20260505182013 61 162 0.0 3.5 0.00 0.00 0.00 48 1009.6
20260505181510 61 162 1.7 3.5 0.00 0.00 0.00 49 1009.5
20260505181012 61 277 1.7 3.5 0.00 0.00 0.00 49 1009.3
20260505180510 61 276 1.7 3.5 0.00 0.00 0.00 49 1009.2
20260505180010 61 229 0.0 1.7 0.00 0.00 0.00 49 1009.3
20260505175509 61 229 0.0 1.7 0.00 0.00 0.00 50 1009.3
20260505175009 62 230 0.0 1.7 0.00 0.00 0.00 51 1009.2
20260505174509 62 230 0.0 1.7 0.00 0.00 0.00 50 1009.1
20260505174010 62 230 0.9 1.7 0.00 0.00 0.00 49 1009.1
20260505173510 62 230 0.0 1.7 0.00 0.00 0.00 49 1009.0
20260505173009 62 230 0.0 1.7 0.00 0.00 0.00 49 1009.1
20260505172512 62 230 0.0 1.7 0.00 0.00 0.00 48 1009.1
20260505172008 62 230 0.0 1.7 0.00 0.00 0.00 50 1009.2
20260505171516 62 230 0.0 1.7 0.00 0.00 0.00 49 1009.2
20260505171008 62 229 0.0 1.7 0.00 0.00 0.00 50 1009.2
20260505170509 62 229 0.0 1.7 0.00 0.00 0.00 49 1009.2
20260505170010 62 229 0.0 1.7 0.00 0.00 0.00 50 1009.1
20260505165507 62 229 0.0 1.7 0.00 0.00 0.00 52 1009.1
20260505165008 62 229 0.0 1.7 0.00 0.00 0.00 50 1009.2
20260505164507 62 229 0.0 1.7 0.00 0.00 0.00 49 1009.2
20260505164008 61 229 0.0 1.7 0.00 0.00 0.00 51 1009.2
20260505163506 61 229 0.0 1.7 0.00 0.00 0.00 53 1009.3
20260505163009 62 229 0.0 1.7 0.00 0.00 0.00 53 1009.3
20260505162505 62 229 0.0 1.7 0.00 0.00 0.00 53 1009.3
20260505162005 62 230 0.0 1.7 0.00 0.00 0.00 53 1009.4
20260505161505 62 293 0.0 1.7 0.00 0.00 0.00 53 1009.3
20260505161005 62 293 0.0 1.7 0.00 0.00 0.00 53 1009.3
20260505160508 63 292 0.0 1.7 0.00 0.00 0.00 54 1009.3
20260505153003 62 165 0.0 1.7 0.00 0.00 0.00 58 1009.8
20260505152502 62 165 0.0 1.7 0.00 0.00 0.00 61 1009.7
20260505152002 61 165 0.0 2.6 0.00 0.00 0.00 59 1009.8
20260505151505 61 165 0.0 2.6 0.00 0.00 0.00 58 1009.9
20260505151002 61 145 0.9 2.6 0.00 0.00 0.00 58 1009.8
20260505150502 61 122 0.9 2.6 0.00 0.00 0.00 58 1009.8